Weather in Ust-Chem

Russia / Novosibirsk Oblast     54°39′44″N   83°43′45″E
temp.,
°C
wind,
m/s
gust,
m/s
humid.,
%
clouds,
%
prec.,
mm/h
press.,
hPa
HPBL,
m
1 march, mon
mon101:00−12sse4995100 0.9 1022355
04:00−10sse51095100 0.6 1018407
07:00−9sse41095100 2.0 1015539
10:00−7sse51095100 1.8 1010573
13:00−3sse51097100 4.4 1009564
16:00−2w61294100 2.1 1008804
19:00−6n3695100 2.4 1009176
22:00−9ne3595100 0.6 1009185
2 march, tue
tue201:00−11ne3595100 1.3 1010171
04:00−13nne3496100 0.2 1011114
07:00−14nne239696 0.3 101360
10:00−14n119487 0.1 1015110
13:00−10w239091 0.3 1016380
16:00−10wsw3392100 0.1 1015347
19:00−14w129798 0.2 101620
22:00−18nw0010082 0.0 101620
3 march, wed
wed301:00−19ne0010078 0.0 101620
04:00−19sw019977 0.0 101720
07:00−16sw119780 0.1 101820
10:00−15sw129678 0.1 1018107
13:00−11sw249187 0.1 1019358
16:00−9sw4592100 0.1 1020526
19:00−11sw3795100 0.3 1021247
22:00−13ssw399590 0.1 1023216
4 march, thu
thu401:00−14s4119689 0.1 1023297
04:00−16s51296100 0.0 1022309
07:00−13s61395100 0.3 1022483
10:00−9s81494100 1.1 1021691
13:00−7ssw81493100 2.3 1020707
16:00−5ssw81494100 1.2 1019775
19:00−5ssw81593100 2.4 1018832
22:00−6ssw71585100 0.4 1017641
5 march, fri
fri501:00−8s61488100 0.4 1016527
04:00−7s6148596 0.0 1014516
07:00−7s6148496 0.0 1012463
10:00−7s71395100 0.4 1011651
13:00−4ssw71295100 2.9 1010781
16:00−3wsw71295100 1.4 1011846
19:00−3wsw81385100 1.8 1016871
22:00−7sw7159091 0.0 1019618